Cherokee, IA

6:11 AM CDT on August 30, 2016 (GMT -0500)
Cherokee Municipal

Weather History for KCKP - January, 2014

Change the Weather History Date:

Saturday, January 25, 2014

  Actual Average Record
Temperature  
Mean Temperature 25 °F -  
Max Temperature 36 °F 29 °F 67 °F (1981)
Min Temperature 14 °F 7 °F -16 °F (1979)
Degree Days  
Heating Degree Days 40    
Moisture  
Dew Point 12 °F    
Average Humidity 61    
Maximum Humidity 85    
Minimum Humidity 44    
Precipitation  
Precipitation 0.00 in - - ()
Sea Level Pressure  
Sea Level Pressure 29.83 in    
Wind  
Wind Speed 14 mph (NW)    
Max Wind Speed 22 mph    
Max Gust Speed 32 mph    
Visibility 10 miles    
Events Snow    
Averages and records for this station are not official NWS values.
T = Trace of Precipitation, MM = Missing Value Source: NWS Daily Summary

Daily Weather History Graph

Daily Weather History Graph

Search for Another Location

Airport or City:

Trip Planner

Search our weather history database for the weather conditions in past years. The results will help you decide how hot, cold, wet, or windy it might be!

Date:

Astronomy

Jan. 25, 2014 Rise Set
Actual Time 7:43 AM CST 5:26 PM CST
Civil Twilight 7:12 AM CST 5:56 PM CST
Nautical Twilight 6:38 AM CST 6:31 PM CST
Astronomical Twilight 6:05 AM CST 7:04 PM CST
Moon 2:15 AM CST (1/25) 12:27 PM CST (1/25)
Length of Visible Light 10h 44m
Length of Day
9h 43m
Waning Crescent, 34% of the Moon is Illuminated
Jan 25
Waning Crescent
Jan 30
New
Feb 6
First Quarter
Feb 14
Full
Feb 22
Last Quarter

Hourly Weather History & Observations

Time (CST) Temp. Windchill Dew Point Humidity Pressure Visibility Wind Dir Wind Speed Gust Speed Precip Events Conditions
12:15 AM 36.1 °F 26.9 °F 32.0 °F 85% 29.72 in 10.0 mi NW 15.0 mph 20.7 mph N/A   Mostly Cloudy
12:35 AM 36.5 °F 27.0 °F 31.6 °F 83% 29.71 in 10.0 mi NW 16.1 mph 25.3 mph N/A   Overcast
12:55 AM 36.1 °F 26.9 °F 31.1 °F 82% 29.72 in 10.0 mi NW 15.0 mph 19.6 mph N/A   Overcast
1:15 AM 36.0 °F 27.5 °F 31.6 °F 84% 29.72 in 10.0 mi NW 12.7 mph 24.2 mph N/A   Overcast
1:35 AM 35.8 °F 27.3 °F 31.3 °F 84% 29.74 in 10.0 mi NW 12.7 mph 18.4 mph N/A   Overcast
1:55 AM 35.2 °F 25.8 °F 30.2 °F 82% 29.75 in 10.0 mi NW 15.0 mph 21.9 mph N/A   Mostly Cloudy
2:15 AM 34.7 °F 26.9 °F 29.1 °F 80% 29.76 in 10.0 mi NW 10.4 mph 18.4 mph N/A   Mostly Cloudy
2:35 AM 34.2 °F 26.2 °F 28.6 °F 80% 29.76 in 10.0 mi NW 10.4 mph 17.3 mph N/A   Overcast
2:55 AM 32.0 °F 21.2 °F 25.9 °F 78% 29.78 in 10.0 mi North 16.1 mph 20.7 mph N/A   Overcast
3:15 AM 28.8 °F 17.0 °F 23.2 °F 80% 29.80 in 10.0 mi North 16.1 mph 23.0 mph N/A   Overcast
3:35 AM 27.7 °F 16.6 °F 23.0 °F 83% 29.81 in 10.0 mi North 13.8 mph 20.7 mph N/A   Overcast
3:55 AM 26.8 °F 13.7 °F 21.9 °F 82% 29.83 in 10.0 mi North 18.4 mph 25.3 mph N/A   Overcast
4:10 AM 25.7 °F 14.0 °F 19.6 °F 78% 29.84 in 10.0 mi North 13.8 mph 21.9 mph N/A   Overcast
4:35 AM 23.7 °F 11.5 °F 17.6 °F 77% 29.85 in 2.0 mi North 13.8 mph 27.6 mph N/A Snow Light Snow
4:55 AM 21.7 °F 7.5 °F 13.5 °F 70% 29.86 in 5.0 mi North 17.3 mph 27.6 mph N/A Snow Light Snow
5:15 AM 21.7 °F 7.1 °F 9.9 °F 60% 29.87 in 10.0 mi North 18.4 mph 25.3 mph N/A   Overcast
5:30 AM 21.6 °F 7.8 °F 9.9 °F 61% 29.88 in 10.0 mi North 16.1 mph 25.3 mph N/A   Overcast
5:55 AM 20.3 °F 6.1 °F 10.0 °F 65% 29.89 in 10.0 mi North 16.1 mph 19.6 mph N/A   Mostly Cloudy
6:15 AM 19.4 °F 6.6 °F 10.4 °F 68% 29.90 in 10.0 mi North 12.7 mph 18.4 mph N/A   Scattered Clouds
6:35 AM 18.3 °F 5.9 °F 10.2 °F 71% 29.91 in 10.0 mi North 11.5 mph - N/A   Clear
6:55 AM 17.4 °F 4.1 °F 10.4 °F 74% 29.92 in 10.0 mi North 12.7 mph 16.1 mph N/A   Clear
7:15 AM 17.1 °F 3.0 °F 10.8 °F 76% 29.94 in 10.0 mi North 13.8 mph 19.6 mph N/A   Clear
7:35 AM 17.1 °F 2.0 °F 10.4 °F 75% 29.95 in 10.0 mi North 16.1 mph 24.2 mph N/A   Clear
7:55 AM 17.4 °F 4.1 °F 10.0 °F 73% 29.96 in 10.0 mi NNW 12.7 mph 21.9 mph N/A   Mostly Cloudy
8:15 AM 16.5 °F 3.0 °F 9.3 °F 73% 29.97 in 10.0 mi North 12.7 mph 18.4 mph N/A   Mostly Cloudy
8:35 AM 16.0 °F 0.1 °F 8.8 °F 73% 29.98 in 10.0 mi North 17.3 mph 24.2 mph N/A   Clear
8:55 AM 16.2 °F 3.9 °F 8.4 °F 72% 29.99 in 10.0 mi NNW 10.4 mph 18.4 mph N/A   Clear
9:15 AM 16.0 °F -1.7 °F 4.1 °F 60% 30.00 in 10.0 mi NNW 21.9 mph 27.6 mph N/A   Clear
9:35 AM 14.9 °F -2.3 °F 1.0 °F 54% 30.01 in 10.0 mi North 19.6 mph 28.8 mph N/A   Clear
9:55 AM 15.1 °F -1.6 °F -1.1 °F 49% 30.02 in 10.0 mi North 18.4 mph 32.2 mph N/A   Clear
10:15 AM 15.8 °F -0.2 °F 1.6 °F 54% 30.03 in 10.0 mi NNW 17.3 mph 26.5 mph N/A   Clear
10:35 AM 16.3 °F 2.7 °F 2.8 °F 55% 30.03 in 10.0 mi North 12.7 mph 19.6 mph N/A   Clear
10:55 AM 17.4 °F 1.9 °F 3.6 °F 55% 30.05 in 10.0 mi North 17.3 mph 28.8 mph N/A   Clear
11:15 AM 18.1 °F 2.9 °F 2.8 °F 51% 30.03 in 10.0 mi North 17.3 mph 27.6 mph N/A   Clear
11:35 AM 18.5 °F 3.8 °F 3.6 °F 52% 30.01 in 10.0 mi NNW 16.1 mph 24.2 mph N/A   Clear
11:55 AM 18.1 °F 2.4 °F -0.4 °F 44% 30.02 in 10.0 mi North 18.4 mph 29.9 mph N/A   Clear
12:15 PM 19.4 °F 4.1 °F 1.0 °F 45% 30.03 in 10.0 mi NNW 18.4 mph 25.3 mph N/A   Clear
12:35 PM 19.9 °F 7.9 °F 1.9 °F 46% 30.02 in 10.0 mi NNW 11.5 mph 23.0 mph N/A   Clear
12:55 PM 21.2 °F 8.9 °F 3.7 °F 47% 30.02 in 10.0 mi NW 12.7 mph 20.7 mph N/A   Clear
1:15 PM 21.0 °F 9.3 °F 3.2 °F 46% 30.01 in 10.0 mi NW 11.5 mph 20.7 mph N/A   Clear
1:35 PM 21.9 °F 11.0 °F 5.2 °F 49% 29.99 in 10.0 mi NW 10.4 mph 17.3 mph N/A   Clear
1:55 PM 22.6 °F 9.6 °F 5.9 °F 49% 29.97 in 10.0 mi WNW 15.0 mph 19.6 mph N/A   Clear
2:15 PM 22.8 °F 12.2 °F 7.0 °F 51% 29.95 in 10.0 mi West 10.4 mph - N/A   Clear
2:35 PM 23.9 °F 12.9 °F 7.2 °F 49% 29.96 in 10.0 mi WNW 11.5 mph 18.4 mph N/A   Clear
2:55 PM 24.8 °F 15.3 °F 6.8 °F 46% 29.95 in 10.0 mi NW 9.2 mph - N/A   Clear
3:15 PM 25.5 °F 21.3 °F 6.1 °F 44% 29.92 in 10.0 mi West 3.5 mph - N/A   Clear
3:35 PM 25.3 °F 21.1 °F 6.8 °F 45% 29.91 in 10.0 mi West 3.5 mph - N/A   Clear
3:55 PM 24.8 °F 14.6 °F 7.3 °F 48% 29.90 in 10.0 mi West 10.4 mph - N/A   Clear
4:15 PM 24.8 °F 19.1 °F 7.7 °F 48% 29.88 in 10.0 mi West 4.6 mph - N/A   Mostly Cloudy
4:35 PM 25.0 °F 19.3 °F 7.7 °F 48% 29.88 in 10.0 mi WSW 4.6 mph - N/A   Mostly Cloudy
4:55 PM 25.3 °F - 8.4 °F 49% 29.87 in 10.0 mi Calm Calm - N/A   Mostly Cloudy
5:15 PM 25.3 °F - 8.4 °F 49% 29.86 in 10.0 mi Calm Calm - N/A   Overcast
5:35 PM 25.3 °F 18.5 °F 9.3 °F 51% 29.85 in 10.0 mi South 5.8 mph - N/A   Overcast
5:55 PM 25.3 °F 21.1 °F 9.5 °F 51% 29.84 in 10.0 mi South 3.5 mph - N/A   Overcast
6:10 PM 25.5 °F 17.8 °F 10.4 °F 53% 29.83 in 10.0 mi South 6.9 mph - N/A   Overcast
6:35 PM 25.7 °F 17.1 °F 11.5 °F 55% 29.80 in 10.0 mi South 8.1 mph - N/A   Overcast
6:55 PM 25.7 °F 18.0 °F 12.9 °F 58% 29.77 in 10.0 mi South 6.9 mph - N/A   Overcast
7:15 PM 26.1 °F 16.8 °F 12.6 °F 57% 29.72 in 10.0 mi SSE 9.2 mph - N/A   Overcast
7:35 PM 26.1 °F 17.6 °F 12.2 °F 56% 29.71 in 10.0 mi South 8.1 mph - N/A   Overcast
7:55 PM 26.1 °F 16.2 °F 11.8 °F 55% 29.69 in 10.0 mi South 10.4 mph - N/A   Overcast
8:15 PM 26.1 °F 15.6 °F 10.9 °F 53% 29.67 in 10.0 mi South 11.5 mph - N/A   Overcast
8:35 PM 26.4 °F 16.0 °F 10.9 °F 52% 29.63 in 10.0 mi South 11.5 mph - N/A   Overcast
8:50 PM 26.6 °F 15.2 °F 10.8 °F 51% 29.60 in 10.0 mi South 13.8 mph - N/A   Overcast
9:15 PM 27.0 °F 15.6 °F 10.9 °F 51% 29.57 in 10.0 mi South 13.8 mph - N/A   Mostly Cloudy
9:35 PM 27.7 °F 15.2 °F 11.8 °F 51% 29.53 in 10.0 mi South 17.3 mph 21.9 mph N/A   Mostly Cloudy
9:55 PM 28.4 °F 15.4 °F 12.7 °F 52% 29.51 in 10.0 mi South 19.6 mph 25.3 mph N/A   Scattered Clouds
10:15 PM 29.1 °F 18.9 °F 14.5 °F 55% 29.48 in 10.0 mi South 12.7 mph 20.7 mph N/A   Clear
10:35 PM 30.6 °F 19.0 °F 16.9 °F 57% 29.46 in 10.0 mi SSW 17.3 mph 21.9 mph N/A   Scattered Clouds
10:55 PM 31.5 °F 20.5 °F 18.7 °F 59% 29.43 in 10.0 mi SSW 16.1 mph 23.0 mph N/A   Scattered Clouds
11:15 PM 31.5 °F 22.3 °F 19.8 °F 62% 29.42 in 10.0 mi SW 11.5 mph - N/A   Clear
11:35 PM 33.8 °F 23.2 °F 24.1 °F 68% 29.40 in 10.0 mi SW 17.3 mph 25.3 mph N/A   Scattered Clouds
11:55 PM 34.7 °F 25.9 °F 24.8 °F 67% 29.40 in 10.0 mi WSW 12.7 mph 20.7 mph N/A   Clear